Regional Weather Roundup
Issued by NWS

Home | Current Version | Previous Version | Graphics & Text | Print | Product List | Glossary On
Versions: 1 2 3 4 5 6 7 8 9 10 11 12 13 14 15 16 17 18 19 20 21 22 23 24 25 26 27 28 29 30 31 32 33 34 35 36 37 38 39 40 41 42 43 44 45 46 47 48 49 50
000
ASUS45 KBOI 281310
RWRID

IDAHO REGIONAL WEATHER ROUNDUP
NATIONAL WEATHER SERVICE BOISE ID
700 AM MDT FRI APR 28 2017

NOTE: "FAIR" INDICATES FEW OR NO CLOUDS BELOW 12000 FEET
WITH NO SIGNIFICANT WEATHER AND/OR OBSTRUCTIONS TO VISIBILITY

IDZ012-014-281400-
SOUTHWEST IDAHO


CITY           SKY/WX    TMP DP  RH WIND       PRES   REMARKS
BOISE          CLEAR     35  31  85 NW6       30.02R WCI  30
CALDWELL       CLEAR     38  32  79 W10       30.06R WCI  31
MOUNTAIN HOME  CLEAR     35  35  99 NW20      29.99R WCI  24
$$

IDZ016-017-281400-
SOUTHCENTRAL IDAHO


CITY           SKY/WX    TMP DP  RH WIND       PRES   REMARKS
BURLEY         LGT SNOW  32  28  85 W15       29.93S VSB 1   WCI  22
JEROME         CLOUDY    29  29 100 SW7       29.94R WCI  22
TWIN FALLS     CLEAR     30  28  92 SW16      29.94R WCI  19
$$

IDZ019>023-281400-
SOUTHEAST IDAHO


CITY           SKY/WX    TMP DP  RH WIND       PRES   REMARKS
IDAHO FALLS    CLOUDY    32  31  96 S6        29.88R WCI  26
POCATELLO      CLOUDY    32  32 100 SW13      29.91R WCI  22
REXBURG        CLOUDY    34  26  72 VRB3      29.85R
$$

IDZ006-010-011-018-031-032-281400-
CENTRAL IDAHO MOUNTAINS


CITY           SKY/WX    TMP DP  RH WIND       PRES   REMARKS
MCCALL         CLOUDY    28  24  85 NW3       29.98R
HAILEY         CLEAR     30  16  55 NW7       29.91R WCI  23
STANLEY          N/A     21  17  84 CALM      29.95R
SALMON         CLOUDY    28  25  86 CALM      29.99R
CHALLIS        CLOUDY    30  19  63 CALM      29.96R
$$

IDZ002-004-006-007-026-281400-
NORTHERN IDAHO


CITY           SKY/WX    TMP DP  RH WIND       PRES   REMARKS
LEWISTON       CLOUDY    45  36  70 CALM      30.08R
LOWELL           N/A     40  37  89 CALM      30.12R
COEUR D`ALENE  MOCLDY    39  33  79 S8        30.05R WCI  33
MULLAN PASS    FOG       27  27 100 VRB3      29.96R VSB 1/4
$$



USA.gov is the U.S. government's official web portal to all federal, state and local government web resources and services.